Weather History for 93780 - November, 2013

Change the Weather History Date:

Sunday, November 10, 2013

  Actual Average Record
Temperature  
Mean Temperature 66 °F -  
Max Temperature 80 °F 63 °F - ()
Min Temperature 53 °F 45 °F - ()
Cooling Degree Days 2    
Growing Degree Days 16 (Base 50)    
Moisture  
Dew Point 51 °F    
Average Humidity 68    
Maximum Humidity 100    
Minimum Humidity 30    
Precipitation  
Precipitation 0.00 in - - ()
Sea Level Pressure  
Sea Level Pressure 29.75 in    
Wind  
Wind Speed 13 mph ()    
Max Wind Speed 23 mph    
Max Gust Speed 24 mph    
Visibility 6.2 miles    
Events      
T = Trace of Precipitation, MM = Missing Value Source: Averaged Metar Reports

Daily Weather History Graph

Daily Weather History Graph

Search for Another Location

Airport or City:

Trip Planner

Search our weather history database for the weather conditions in past years. The results will help you decide how hot, cold, wet, or windy it might be!

Date:

Astronomy

Nov. 10, 2013 Rise Set
Actual Time 6:01 AM NZDT 8:27 PM NZDT
Civil Twilight 5:28 AM NZDT 8:59 PM NZDT
Nautical Twilight 4:48 AM NZDT 9:39 PM NZDT
Astronomical Twilight 4:04 AM NZDT 10:24 PM NZDT
Moon 12:29 PM NZDT (11/10) 1:40 AM NZDT (11/10)
Length of Visible Light 15h 30m
Length of Day
14h 26m
Waxing Crescent, 47% of the Moon is Illuminated
Nov 10
Waxing Crescent
Nov 10
First Quarter
Nov 18
Full
Nov 26
Last Quarter
Dec 3
New

Hourly Weather History & Observations

Time (NZDT) Temp. Dew Point Humidity Pressure Visibility Wind Dir Wind Speed Gust Speed Precip Events Conditions
12:00 AM 53.6 °F 50.0 °F 88% 29.86 in 6.2 mi ENE 16.1 mph - N/A   Overcast
12:30 AM 53.6 °F 51.8 °F 94% 29.86 in 6.2 mi ENE 18.4 mph - N/A   Overcast
1:00 AM 55.4 °F 51.8 °F 88% 29.86 in 6.2 mi ENE 18.4 mph - N/A   Overcast
1:30 AM 55.4 °F 51.8 °F 88% 29.83 in 6.2 mi ENE 17.3 mph - N/A   Overcast
2:00 AM 55.4 °F 51.8 °F 88% 29.83 in 6.2 mi ENE 18.4 mph - N/A   Overcast
2:30 AM 55.4 °F 51.8 °F 88% 29.83 in 6.2 mi East 15.0 mph - N/A   Overcast
3:00 AM 55.4 °F 51.8 °F 88% 29.80 in 6.2 mi East 16.1 mph - N/A   Overcast
3:30 AM 55.4 °F 51.8 °F 88% 29.80 in 6.2 mi East 15.0 mph - N/A   Overcast
4:00 AM 55.4 °F 53.6 °F 94% 29.77 in 6.2 mi ENE 13.8 mph - N/A   Overcast
4:30 AM 55.4 °F 53.6 °F 94% 29.77 in 6.2 mi East 11.5 mph - N/A   Overcast
5:00 AM 55.4 °F 53.6 °F 94% 29.77 in 6.2 mi East 12.7 mph - N/A   Overcast
5:30 AM 53.6 °F 53.6 °F 100% 29.74 in 6.2 mi ENE 11.5 mph - N/A   Mostly Cloudy
6:00 AM 53.6 °F 53.6 °F 100% 29.74 in 6.2 mi East 8.1 mph - N/A   Mostly Cloudy
6:30 AM 53.6 °F 53.6 °F 100% 29.74 in 6.2 mi East 11.5 mph - N/A   Scattered Clouds
7:00 AM 53.6 °F 53.6 °F 100% 29.74 in 6.2 mi East 12.7 mph - N/A   Unknown
7:30 AM 55.4 °F 53.6 °F 94% 29.74 in 6.2 mi East 10.4 mph - N/A   Unknown
8:00 AM 57.2 °F 53.6 °F 88% 29.74 in 6.2 mi East 8.1 mph - N/A   Unknown
8:30 AM 59.0 °F 55.4 °F 88% 29.74 in 6.2 mi East 10.4 mph - N/A   Unknown
9:00 AM 60.8 °F 55.4 °F 82% 29.71 in 6.2 mi East 10.4 mph - N/A   Unknown
9:30 AM 60.8 °F 53.6 °F 77% 29.71 in 6.2 mi East 10.4 mph - N/A   Unknown
10:00 AM 64.4 °F 53.6 °F 68% 29.71 in 6.2 mi ENE 11.5 mph - N/A   Unknown
10:30 AM 66.2 °F 53.6 °F 64% 29.71 in 6.2 mi East 11.5 mph - N/A   Unknown
11:00 AM 68.0 °F 53.6 °F 60% 29.71 in 6.2 mi East 11.5 mph - N/A   Unknown
11:30 AM 68.0 °F 55.4 °F 64% 29.68 in 6.2 mi East 11.5 mph - N/A   Unknown
12:00 PM 69.8 °F 53.6 °F 56% 29.68 in 6.2 mi ESE 9.2 mph - N/A   Unknown
12:30 PM 69.8 °F 53.6 °F 56% 29.68 in 6.2 mi East 10.4 mph - N/A   Unknown
1:00 PM 71.6 °F 51.8 °F 50% 29.68 in 6.2 mi East 9.2 mph - N/A   Unknown
1:30 PM 75.2 °F 53.6 °F 47% 29.68 in 6.2 mi East 6.9 mph - N/A   Unknown
2:00 PM 78.8 °F 51.8 °F 39% 29.68 in 6.2 mi NE 4.6 mph - N/A   Unknown
2:30 PM 80.6 °F 48.2 °F 32% 29.68 in 6.2 mi WNW 17.3 mph - N/A   Unknown
3:00 PM 80.6 °F 46.4 °F 30% 29.68 in 6.2 mi WNW 17.3 mph - N/A   Unknown
3:30 PM 80.6 °F 48.2 °F 32% 29.68 in 6.2 mi WNW 15.0 mph - N/A   Unknown
4:00 PM 80.6 °F 46.4 °F 30% 29.68 in 6.2 mi NW 19.6 mph - N/A   Unknown
4:30 PM 78.8 °F 46.4 °F 32% 29.68 in 6.2 mi NW 20.7 mph - N/A   Unknown
5:00 PM 78.8 °F 46.4 °F 32% 29.71 in 6.2 mi WNW 12.7 mph 24.2 mph N/A   Unknown
5:30 PM 78.8 °F 46.4 °F 32% 29.71 in 6.2 mi WNW 12.7 mph - N/A   Unknown
6:00 PM 78.8 °F 48.2 °F 34% 29.71 in 6.2 mi WNW 12.7 mph - N/A   Unknown
6:30 PM 77.0 °F 48.2 °F 36% 29.71 in 6.2 mi WNW 12.7 mph - N/A   Unknown
7:00 PM 77.0 °F 50.0 °F 39% 29.71 in 6.2 mi WNW 10.4 mph - N/A   Unknown
7:30 PM 75.2 °F 48.2 °F 38% 29.71 in 6.2 mi WNW 10.4 mph - N/A   Unknown
8:00 PM 73.4 °F 48.2 °F 41% 29.74 in 6.2 mi West 9.2 mph - N/A   Unknown
8:30 PM 68.0 °F 50.0 °F 52% 29.77 in 6.2 mi SW 18.4 mph - N/A   Unknown
9:00 PM 60.8 °F 51.8 °F 72% 29.83 in 6.2 mi SW 21.9 mph - N/A   Unknown
9:30 PM 59.0 °F 51.8 °F 77% 29.83 in 6.2 mi WSW 21.9 mph - N/A   Unknown
10:00 PM 57.2 °F 53.6 °F 88% 29.89 in 6.2 mi SW 23.0 mph - N/A   Unknown
10:30 PM 57.2 °F 51.8 °F 82% 29.89 in 6.2 mi SW 23.0 mph - N/A   Unknown
11:00 PM 57.2 °F 51.8 °F 82% 29.92 in 6.2 mi SW 21.9 mph - N/A   Scattered Clouds
11:30 PM 55.4 °F 50.0 °F 82% 29.92 in 6.2 mi WSW 20.7 mph - N/A   Mostly Cloudy